Helicity
103 106 290 426 176 113 105 50 136 91 100 78 105 107 109 107 109 100 99 119 126 98 91 50 25 24 5 -6 -22 -31 -63 -69
252 326 198 224 307 140 107 18 59 68 85 103 110 100 97 94 86 77 90 107 131 112 81 40 4 15 7 -9 -19 -29 -51 -46
317 269 357 290 171 193 56 90 74 129 126 105 113 101 94 79 64 68 81 104 152 128 123 100 37 17 12 9 -3 -43 -44 -46
325 295 260 226 224 240 67 142 35 134 139 119 131 105 88 77 61 70 71 75 86 114 106 79 26 5 14 17 -8 -25 -35 -38
288 213 138 137 161 77 142 192 95 132 168 143 138 146 129 114 60 33 22 66 46 80 87 60 42 18 25 13 1 -10 -29 -44
262 241 284 153 237 99 85 65 56 84 86 124 136 156 75 24 29 2 7 19 67 53 52 58 56 40 32 29 14 1 -12 -22
258 203 148 164 158 126 22 47 -13 129 102 108 129 118 97 22 23 9 20 5 68 42 34 46 44 41 36 33 16 2 -2 -9
232 209 138 162 143 104 93 39 13 20 138 125 99 118 101 54 45 22 8 18 46 32 25 25 32 43 39 23 12 13 17 16
120 127 94 103 203 193 163 30 11 63 145 6 49 113 38 142 30 5 -7 63 60 45 49 49 43 46 45 32 33 32 31 29
154 187 157 175 282 143 153 110 111 157 124 71 112 92 85 69 39 15 59 68 58 42 45 54 45 37 39 35 43 56 50 41
197 161 155 207 247 281 276 322 200 199 234 244 178 140 177 62 31 66 67 78 52 46 63 79 75 52 43 46 58 65 79 87
182 200 292 334 436 368 353 357 344 338 424 431 124 118 73 100 93 98 80 74 54 46 89 99 82 94 81 68 71 65 90 110
125 121 181 272 261 311 193 188 395 516 378 187 83 74 180 110 91 94 77 88 60 93 128 118 121 136 127 105 94 99 123 135
69 108 140 173 126 72 170 200 312 455 280 102 69 80 72 43 48 63 78 99 98 122 154 167 136 167 161 154 127 150 161 155
110 115 92 -15 -1 -0 50 50 165 123 105 -156 -92 -22 7 25 6 85 85 115 116 130 145 155 175 175 214 204 179 162 176 210
53 50 60 11 -18 -70 -74 9 20 -12 -70 -136 -118 -71 -54 -36 -3 78 107 122 127 136 170 197 221 210 238 233 305 303 192 251
15 -7 7 -0 -53 -59 -53 -67 -34 -76 -102 -132 -152 -173 -133 -98 -66 -25 83 137 132 146 181 206 242 228 282 300 284 326 363 412
-8 2 -28 -9 -38 -29 -68 -129 -175 -192 -185 -222 -218 -186 -133 -99 -82 -52 -4 65 203 151 152 201 162 136 185 265 311 332 386 314
8 -7 -21 -6 9 7 -25 -97 -193 -183 -151 -146 -146 -151 -133 -85 -78 -35 29 100 166 252 137 184 210 179 220 236 350 384 274 247
92 52 -3 -21 1 6 -7 -64 -107 -114 -107 -74 -125 -124 -93 -92 -39 26 82 191 209 165 145 159 202 229 252 316 357 266 280 339
Wind_Speed
17 22 16 17 22 28 33 23 27 29 26 24 25 25 29 31 31 30 30 30 30 32 33 32 30 30 28 30 33 32 33 33
17 14 32 28 21 28 39 24 29 33 28 25 24 25 27 30 31 31 29 28 30 29 28 27 28 27 27 29 25 25 28 31
25 21 25 28 23 33 41 32 29 33 30 28 26 21 23 26 25 28 32 30 26 28 24 25 28 28 28 21 20 21 25 29
21 16 20 17 18 29 29 27 29 30 31 27 20 20 19 22 24 24 28 29 32 29 21 20 19 19 17 13 17 19 24 29
17 23 19 28 29 24 24 27 24 33 37 27 22 19 18 15 16 19 24 26 23 19 17 13 11 8 8 11 15 19 23 27
25 12 24 35 42 32 27 25 23 32 30 29 25 21 22 29 15 18 17 20 17 12 11 6 8 9 10 11 15 18 20 25
9 21 26 35 34 50 48 58 45 26 29 27 28 26 22 25 18 12 15 11 13 9 9 7 12 13 13 14 15 17 20 24
9 9 12 21 34 22 23 35 29 31 26 27 29 27 24 20 12 10 9 7 8 7 9 18 18 15 15 16 16 18 20 23
10 9 9 15 12 18 26 29 39 28 27 35 34 22 25 13 13 8 7 3 6 16 18 20 19 23 20 20 18 18 20 22
11 13 11 13 16 18 25 23 26 24 26 27 24 22 16 12 12 9 7 13 22 24 25 18 21 21 23 24 22 19 18 19
8 11 14 12 17 18 21 18 22 21 23 19 17 15 15 16 13 14 11 30 51 39 32 28 22 24 30 32 26 21 17 21
12 16 10 12 15 19 19 21 29 24 26 26 21 15 15 24 40 45 42 45 49 51 33 32 35 29 34 36 37 33 27 24
7 11 14 19 19 23 31 30 27 29 35 48 26 20 31 34 49 43 49 33 52 28 29 29 30 31 35 41 39 32 30 25
2 7 15 18 23 30 45 44 38 33 36 60 46 35 59 64 62 57 45 28 29 18 16 28 35 29 36 40 45 45 36 32
54 46 42 65 70 75 70 72 70 75 78 80 80 77 72 66 70 46 41 35 20 16 18 26 31 36 40 40 46 49 48 43
48 53 60 67 73 76 77 77 77 75 73 80 81 74 78 75 74 52 35 23 23 21 24 26 36 38 42 44 45 43 47 54
52 56 58 61 68 72 74 77 78 77 77 79 82 80 80 79 78 77 20 22 30 30 34 30 32 38 37 40 44 42 42 48
44 49 55 57 58 63 65 71 76 78 78 78 80 80 79 76 67 59 40 26 24 40 45 39 37 39 42 36 37 43 42 42
46 46 49 48 49 50 53 61 67 71 71 72 73 72 72 73 60 40 32 24 19 28 44 36 38 41 30 34 33 35 39 39
43 48 51 49 49 51 51 53 53 58 60 54 48 58 59 65 42 23 25 18 14 13 21 31 27 32 28 27 29 32 35 39
Wind_Direction
220 217 187 146 120 116 200 180 185 179 164 157 138 126 114 105 100 96 92 86 77 69 73 81 78 71 62 58 58 51 45 39
224 203 166 163 134 123 125 145 187 184 173 169 148 130 117 107 101 98 93 87 81 69 65 69 82 75 68 62 49 38 36 36
235 200 162 149 149 137 135 137 181 188 179 161 147 139 123 111 104 98 93 86 78 70 59 65 76 75 71 52 36 28 30 35
217 158 131 125 134 141 142 147 153 190 184 171 167 145 132 114 105 99 93 85 81 70 51 57 62 60 49 27 27 21 27 38
188 129 135 115 118 145 157 138 161 191 194 179 166 154 135 131 115 104 95 83 77 56 33 24 31 17 9 8 15 22 25 31
124 171 118 114 118 136 139 146 168 153 170 166 156 160 142 120 129 112 97 90 70 34 338 338 310 310 331 354 1 11 6 14
126 128 127 127 125 136 138 145 141 176 186 166 152 156 156 128 123 121 96 89 72 30 345 318 286 297 309 316 347 352 2 6
160 166 131 136 133 138 146 139 148 148 187 164 154 155 152 144 140 132 98 91 61 329 315 278 281 293 313 324 335 342 1 16
143 223 176 161 174 154 144 145 144 156 191 148 147 167 153 160 146 149 131 311 296 283 278 286 293 283 296 303 322 347 358 5
245 234 209 168 169 188 146 154 155 199 159 159 159 160 165 186 171 153 250 273 265 271 273 293 296 300 298 300 315 336 357 5
238 205 230 184 166 180 214 200 201 192 174 173 196 194 181 225 223 238 257 258 241 258 272 281 295 298 293 294 312 329 346 348
244 233 211 207 175 219 222 225 220 210 219 233 227 199 206 240 246 242 249 253 255 253 278 279 283 294 292 296 303 314 326 335
164 181 201 217 197 208 225 228 224 222 227 237 234 227 246 243 235 245 246 270 256 277 282 284 289 292 298 300 307 316 319 323
308 169 182 205 200 226 235 236 234 231 233 235 227 229 228 223 228 241 260 279 283 281 280 288 286 292 300 307 308 311 313 312
153 140 141 164 169 202 210 206 212 206 196 196 207 212 219 230 228 263 275 280 278 269 270 280 287 291 295 302 308 305 318 320
143 147 153 167 174 178 180 181 179 185 188 203 211 225 225 232 239 271 283 279 275 268 271 276 288 288 293 295 303 313 312 318
154 157 155 160 169 180 187 193 203 206 206 207 216 224 228 226 229 243 263 269 280 282 285 280 283 288 288 298 300 308 315 312
150 154 163 163 164 169 176 182 191 197 200 202 209 217 222 218 215 212 205 217 263 283 286 286 286 290 288 289 295 303 306 312
163 163 165 162 165 167 171 179 185 189 193 199 206 210 218 221 213 208 211 222 230 300 280 285 286 289 290 290 295 302 308 311
169 172 175 172 172 174 175 177 180 187 192 193 197 205 210 217 207 219 218 235 275 295 299 287 289 293 290 293 298 302 305 312